Wind_Speed
31 30 28 28 29 29 29 30 31 32 34 36 37 39 38 35 35 35 38 42 46 47 46 45 43 41 41 42 41 40 42 42 42 40 39 39 39 38 37 35 34 34 34 35
28 27 26 26 25 27 29 32 34 38 40 42 43 44 43 42 39 39 40 43 46 48 49 49 47 45 44 45 44 41 41 44 44 43 42 41 40 38 36 35 35 34 34 36
26 25 25 25 27 29 32 36 39 43 46 48 50 51 48 48 46 45 44 44 46 48 49 50 50 47 46 46 45 43 41 44 46 45 44 43 41 38 35 35 35 35 35 36
25 25 26 28 31 34 37 41 44 48 51 53 54 59 56 55 52 50 48 48 47 48 49 51 51 49 46 46 45 43 42 44 45 45 44 43 41 37 36 36 36 35 35 35
26 27 29 32 35 38 42 45 48 51 55 58 59 65 64 62 60 56 53 52 51 50 50 51 51 50 47 46 45 43 43 44 45 45 43 42 40 37 36 36 36 36 36 36
28 30 32 34 37 40 44 48 51 55 58 63 61 67 69 63 64 61 58 56 54 54 52 51 52 52 49 47 44 43 43 44 45 43 42 41 39 37 37 37 37 38 38 38
30 31 33 34 37 41 46 49 53 57 60 63 61 65 66 62 64 65 63 61 58 55 53 51 52 52 51 47 43 42 42 42 43 42 41 41 39 38 38 37 38 40 40 40
31 30 32 35 39 42 45 47 48 52 55 55 55 56 52 52 57 61 63 63 60 56 54 52 51 52 51 48 44 42 41 41 42 41 40 40 40 39 38 38 38 39 40 41
29 29 30 34 37 39 42 44 45 49 50 51 50 46 39 36 43 48 53 57 57 55 53 52 51 50 50 48 45 43 41 41 41 41 40 40 40 39 38 38 38 39 40 40
27 28 29 30 32 35 40 42 44 45 48 49 47 42 34 28 32 34 39 46 50 51 51 51 50 49 48 48 46 44 42 41 41 41 41 40 39 38 37 37 37 38 39 39
26 26 24 26 29 34 36 37 38 41 43 44 44 37 31 27 28 28 29 35 42 46 47 49 49 48 47 47 46 44 42 42 42 41 40 39 39 38 36 36 37 37 38 39
23 23 21 23 26 30 31 32 34 37 39 40 41 30 26 24 25 28 29 31 37 42 45 48 48 46 45 45 45 43 42 42 42 41 40 39 38 37 37 37 37 38 39 40
19 19 19 18 21 24 26 27 30 33 36 36 36 25 18 16 20 24 28 31 35 40 44 47 46 45 43 43 43 42 42 42 42 40 39 38 37 37 37 37 37 38 38 40
15 14 14 15 17 22 24 24 25 27 29 28 23 16 12 15 20 22 24 28 32 38 43 45 44 43 41 41 41 41 41 42 41 39 37 37 36 36 37 38 38 38 38 39
9 7 8 11 14 18 20 21 21 21 21 19 13 11 9 13 14 15 17 22 29 35 40 42 42 40 39 39 39 40 41 40 38 37 36 35 35 36 37 38 38 38 38 38
4 3 5 9 12 15 17 18 17 16 15 12 8 5 4 5 5 9 13 16 23 31 36 38 38 37 37 37 38 38 37 36 35 34 34 34 35 37 37 37 37 37 37 40
1 3 4 6 9 12 15 14 13 12 11 9 7 6 4 4 6 9 13 15 21 27 31 34 35 35 35 35 34 34 33 32 32 32 32 34 35 35 35 34 34 36 38 40
2 5 7 9 10 14 13 12 12 11 9 8 8 8 10 11 11 13 16 20 24 26 28 29 30 30 30 30 30 29 28 28 28 30 31 32 32 31 31 32 34 36 39 42
3 6 9 11 12 11 11 12 12 11 10 10 10 10 11 14 15 17 19 21 22 23 25 25 26 25 25 25 25 25 25 26 27 28 28 28 28 28 30 32 34 37 41 44
3 4 6 8 9 10 9 10 11 12 13 14 14 13 12 12 14 16 18 19 20 20 21 23 23 23 24 24 23 23 23 23 23 24 24 24 26 28 30 33 36 40 43 45
4 2 3 4 5 6 6 6 8 11 12 13 13 13 13 12 13 14 14 14 15 16 17 18 19 19 18 18 18 18 19 19 19 20 22 23 25 28 32 35 39 41 44 46
8 6 4 4 3 2 2 2 4 6 6 8 9 9 10 10 11 12 12 12 11 12 13 13 14 14 14 14 14 14 15 16 18 19 21 24 27 31 34 37 39 41 44 47
12 10 8 8 7 5 5 4 3 2 2 2 2 3 3 4 4 4 5 6 6 8 9 9 10 11 11 12 13 13 14 15 17 19 23 26 29 32 35 37 39 42 45 47
17 15 13 11 10 9 8 7 7 6 6 5 4 3 3 2 2 2 3 4 5 6 7 8 9 9 10 10 11 12 13 15 18 21 25 28 31 33 35 37 40 43 45 47
20 19 18 16 13 12 11 9 8 8 7 5 4 4 4 4 5 5 6 7 7 7 8 8 8 8 9 10 11 12 14 17 21 25 28 30 31 33 36 39 41 43 45 46
23 22 20 18 16 14 13 11 10 8 6 5 4 4 5 5 5 5 6 7 7 7 7 7 8 10 11 12 13 15 19 23 25 28 29 30 32 35 37 39 41 42 45 48
Wind_Direction
222 224 227 231 235 240 244 249 253 255 256 256 257 258 260 259 258 257 255 253 252 249 248 247 247 245 244 246 247 245 245 247 249 251 254 257 259 260 261 262 259 261 262 259
220 224 228 233 240 247 252 256 259 260 261 260 259 258 261 263 262 259 255 252 251 249 247 247 247 246 244 245 247 246 244 245 247 250 253 257 260 262 263 262 260 261 261 259
224 229 236 243 249 255 260 264 266 267 267 267 266 261 260 261 261 260 259 255 251 249 247 246 246 245 244 244 247 247 243 243 246 249 252 256 259 262 262 260 259 260 261 260
235 241 248 256 262 265 268 269 271 272 272 270 269 268 261 261 259 258 258 256 253 248 246 244 244 244 243 243 245 246 244 244 246 248 251 254 257 258 258 258 259 260 262 262
245 252 260 265 269 272 274 275 276 276 274 273 272 271 265 263 260 256 254 254 253 249 244 242 241 242 241 241 242 243 243 244 245 247 250 253 255 258 258 258 259 260 262 264
253 259 264 268 272 276 279 280 280 279 278 277 276 274 268 265 263 258 253 250 249 249 245 240 239 239 239 239 240 240 241 244 246 247 250 254 257 259 260 260 261 262 263 265
255 261 267 272 277 280 283 283 284 283 282 283 280 276 272 265 262 258 253 248 245 244 244 240 237 237 237 237 237 237 240 243 246 247 249 254 257 260 262 264 264 264 264 266
255 262 271 277 281 285 285 285 287 289 290 290 286 284 281 269 260 255 251 247 243 240 240 238 235 234 234 234 233 233 237 241 244 246 248 253 257 261 264 265 266 265 266 268
261 267 274 280 285 287 288 289 292 293 294 293 291 292 287 274 260 253 249 245 241 238 235 235 233 232 231 231 230 231 234 238 242 244 247 251 256 260 263 266 267 267 268 270
265 271 278 283 286 289 292 296 298 297 296 294 293 293 292 279 263 256 249 242 237 233 230 229 229 229 229 228 228 229 232 235 239 241 244 250 255 260 263 266 267 268 271 273
269 275 281 284 288 291 296 301 301 298 296 295 294 294 290 278 267 258 247 237 232 227 224 224 224 225 225 226 226 228 231 234 237 240 243 249 255 259 263 265 267 270 273 277
271 278 284 288 289 293 299 304 303 300 298 296 295 300 293 280 265 255 244 233 225 220 217 218 220 221 222 224 224 226 230 233 235 238 242 248 254 258 261 264 267 271 276 280
273 282 287 289 293 299 305 307 303 300 298 296 295 304 295 272 254 247 239 229 221 214 212 213 215 216 218 220 222 225 228 231 233 236 241 248 254 258 262 266 270 274 279 282
276 282 292 303 310 317 321 319 314 306 303 303 300 297 274 262 247 237 230 224 217 209 207 208 209 211 213 215 218 221 225 228 231 236 242 249 255 261 266 270 274 278 281 283
272 277 294 312 321 326 330 329 326 322 317 314 313 298 265 257 247 228 215 214 210 203 201 202 203 206 208 210 213 217 222 226 231 237 244 252 259 265 269 273 276 279 282 284
268 288 318 330 340 345 343 338 335 335 335 340 339 339 296 254 215 193 193 199 198 194 192 193 196 199 201 206 211 216 221 227 233 241 248 255 262 267 270 273 276 279 282 285
334 25 26 14 9 5 1 350 346 347 353 6 24 43 67 114 139 151 162 167 169 174 177 182 187 192 198 203 208 215 222 230 237 245 252 258 263 267 269 272 276 280 283 286
79 69 62 56 46 37 23 17 13 10 11 34 62 73 85 101 113 122 131 140 147 156 165 173 180 188 195 201 207 215 224 233 241 248 255 260 262 265 268 273 277 281 285 289
110 85 76 69 65 59 51 46 40 38 45 57 71 80 87 93 106 116 125 133 142 152 161 169 177 185 193 201 210 218 227 236 243 248 252 255 260 265 270 275 280 285 289 293
157 101 89 88 89 83 78 68 60 60 62 66 71 74 81 96 107 114 123 135 147 158 166 174 182 190 198 205 213 220 227 233 239 245 251 257 263 269 275 281 286 290 294 296
203 175 129 118 109 103 96 87 75 71 66 71 73 74 75 86 95 108 119 133 143 151 161 170 178 185 192 200 207 215 223 231 239 247 255 263 271 278 284 288 291 294 296 298
221 224 215 211 208 193 165 126 81 63 64 62 63 67 75 82 89 99 104 113 126 139 149 158 168 176 185 194 204 216 228 239 249 259 269 277 283 287 290 292 294 296 298 300
230 233 236 237 238 236 229 242 276 315 338 349 14 38 51 64 76 99 113 127 139 146 153 163 173 184 194 206 218 229 242 256 268 277 283 286 289 291 293 295 297 299 300 302
233 238 243 243 241 241 244 254 267 279 287 291 293 294 294 292 276 249 231 222 215 208 202 201 203 211 222 234 245 257 268 276 282 286 289 291 293 294 296 298 300 302 304 305
234 239 243 246 244 242 244 248 257 266 269 273 279 285 288 283 266 256 249 244 236 230 226 228 234 244 254 262 267 272 279 285 289 293 295 295 296 298 300 302 304 305 307 308
234 238 242 245 244 243 241 241 245 252 250 251 269 286 288 287 274 259 250 246 240 236 237 241 250 260 267 271 276 282 288 293 296 297 298 299 301 302 304 305 307 308 309 310
Height
5693 5699 5701 5702 5705 5708 5710 5711 5712 5713 5713 5715 5718 5720 5722 5723 5724 5726 5726 5726 5727 5731 5734 5737 5741 5744 5746 5748 5750 5753 5755 5756 5757 5759 5760 5761 5762 5763 5764 5765 5766 5765 5765 5764
5689 5693 5695 5697 5699 5700 5701 5702 5703 5703 5702 5704 5707 5711 5712 5712 5714 5715 5716 5716 5717 5720 5723 5726 5730 5733 5736 5739 5741 5744 5746 5748 5749 5750 5751 5753 5754 5756 5757 5758 5758 5758 5757 5757
5683 5687 5689 5690 5692 5693 5694 5694 5693 5692 5691 5692 5694 5698 5703 5701 5702 5703 5704 5705 5706 5709 5712 5715 5718 5722 5726 5729 5732 5735 5738 5739 5740 5742 5744 5745 5747 5748 5749 5749 5750 5750 5750 5750
5677 5680 5682 5683 5684 5684 5685 5684 5683 5681 5679 5679 5680 5679 5690 5688 5690 5691 5691 5692 5693 5696 5699 5702 5706 5710 5715 5719 5723 5726 5729 5731 5732 5734 5736 5738 5739 5741 5741 5742 5742 5743 5743 5743
5672 5674 5675 5676 5676 5675 5675 5673 5672 5668 5664 5663 5666 5658 5669 5671 5673 5676 5677 5677 5678 5681 5685 5689 5693 5698 5703 5707 5712 5717 5720 5722 5724 5726 5728 5730 5732 5733 5734 5734 5735 5735 5735 5735
5666 5667 5668 5668 5668 5666 5664 5662 5658 5653 5648 5646 5651 5638 5643 5655 5652 5655 5659 5661 5663 5666 5671 5676 5680 5685 5691 5696 5702 5707 5710 5713 5716 5719 5721 5722 5724 5726 5726 5726 5727 5727 5727 5727
5659 5660 5660 5660 5659 5657 5654 5650 5644 5637 5631 5629 5628 5617 5622 5634 5631 5631 5635 5640 5645 5651 5656 5662 5668 5674 5680 5686 5692 5697 5701 5705 5708 5711 5713 5715 5717 5718 5719 5719 5720 5720 5719 5718
5653 5655 5654 5652 5650 5647 5642 5637 5631 5623 5616 5610 5603 5600 5605 5609 5607 5608 5611 5617 5626 5635 5641 5648 5656 5662 5669 5676 5682 5687 5691 5696 5700 5703 5706 5708 5709 5710 5711 5712 5712 5712 5711 5709
5645 5648 5647 5644 5640 5636 5630 5625 5618 5609 5601 5594 5589 5587 5589 5589 5586 5587 5590 5597 5608 5618 5627 5635 5643 5651 5658 5666 5672 5678 5682 5687 5691 5695 5698 5700 5701 5703 5704 5704 5704 5703 5702 5700
5638 5639 5638 5635 5630 5626 5620 5614 5607 5598 5589 5582 5578 5576 5577 5575 5572 5572 5575 5581 5591 5602 5613 5622 5631 5640 5648 5656 5663 5668 5673 5677 5682 5686 5690 5692 5694 5695 5696 5696 5696 5695 5693 5692
5630 5630 5630 5627 5623 5616 5611 5606 5597 5589 5582 5574 5567 5568 5566 5563 5561 5561 5563 5567 5576 5588 5600 5610 5620 5629 5637 5646 5654 5659 5664 5669 5673 5678 5682 5685 5687 5688 5688 5688 5687 5686 5685 5684
5623 5623 5622 5620 5615 5609 5604 5598 5589 5581 5573 5565 5558 5559 5557 5553 5551 5551 5554 5557 5564 5575 5588 5599 5609 5619 5629 5638 5645 5651 5656 5661 5666 5670 5674 5677 5679 5680 5680 5679 5679 5678 5677 5675
5618 5617 5615 5614 5611 5604 5597 5591 5582 5573 5565 5558 5551 5551 5547 5545 5542 5542 5545 5549 5555 5565 5578 5589 5600 5611 5621 5630 5637 5644 5649 5654 5659 5663 5668 5670 5672 5672 5672 5672 5671 5670 5668 5665
5612 5611 5610 5607 5602 5595 5590 5584 5575 5567 5559 5552 5547 5543 5541 5538 5535 5536 5538 5542 5549 5558 5570 5581 5593 5604 5614 5622 5630 5637 5642 5647 5652 5657 5661 5664 5665 5665 5665 5664 5663 5661 5659 5656
5608 5608 5605 5602 5597 5592 5586 5579 5572 5564 5557 5549 5544 5539 5536 5533 5532 5533 5535 5539 5545 5554 5564 5576 5588 5599 5608 5617 5624 5631 5637 5642 5647 5652 5655 5657 5658 5659 5658 5657 5655 5653 5650 5647
5604 5604 5602 5598 5594 5588 5583 5577 5570 5563 5556 5550 5544 5539 5536 5533 5532 5533 5535 5539 5544 5552 5562 5574 5585 5596 5604 5613 5620 5627 5633 5639 5643 5647 5649 5651 5652 5651 5650 5649 5647 5644 5641 5638
5601 5600 5599 5596 5592 5588 5582 5577 5571 5565 5559 5553 5547 5544 5539 5537 5535 5535 5537 5541 5546 5555 5564 5575 5585 5594 5602 5610 5617 5624 5629 5634 5638 5641 5643 5644 5644 5643 5642 5640 5638 5635 5632 5629
5599 5597 5595 5594 5592 5586 5585 5578 5573 5567 5563 5558 5554 5550 5547 5544 5543 5543 5545 5549 5555 5562 5571 5579 5587 5595 5603 5609 5616 5621 5626 5630 5633 5635 5636 5637 5636 5635 5634 5632 5629 5627 5623 5620
5597 5596 5594 5592 5590 5588 5586 5580 5576 5572 5568 5564 5561 5558 5556 5554 5553 5554 5556 5559 5564 5570 5577 5583 5590 5597 5603 5609 5614 5619 5622 5625 5627 5628 5629 5629 5629 5627 5626 5624 5622 5618 5614 5610
5595 5594 5594 5593 5592 5590 5588 5584 5580 5578 5574 5571 5568 5567 5565 5564 5564 5565 5565 5568 5572 5577 5582 5587 5593 5598 5603 5607 5611 5614 5617 5619 5621 5622 5623 5622 5622 5621 5619 5616 5613 5609 5604 5599
5594 5594 5594 5594 5593 5591 5590 5587 5585 5584 5582 5578 5576 5574 5573 5573 5573 5573 5573 5575 5578 5581 5585 5589 5593 5597 5601 5604 5608 5611 5613 5615 5616 5617 5617 5616 5615 5614 5611 5608 5604 5599 5594 5589
5591 5592 5593 5593 5593 5595 5591 5589 5588 5587 5584 5583 5582 5580 5580 5579 5579 5579 5580 5581 5583 5585 5588 5591 5594 5597 5600 5603 5606 5608 5610 5611 5612 5612 5611 5610 5609 5606 5603 5599 5595 5590 5584 5578
5589 5591 5591 5593 5595 5593 5591 5590 5589 5588 5587 5586 5585 5585 5584 5584 5584 5584 5585 5586 5587 5589 5590 5593 5595 5597 5600 5602 5604 5605 5606 5607 5607 5606 5605 5604 5601 5598 5594 5590 5585 5580 5574 5568
5586 5587 5589 5590 5591 5591 5590 5590 5589 5589 5588 5587 5586 5586 5586 5586 5586 5586 5587 5588 5589 5590 5592 5594 5595 5597 5599 5601 5602 5602 5602 5602 5602 5601 5599 5597 5594 5590 5586 5581 5575 5570 5564 5557
5582 5584 5585 5587 5588 5588 5589 5589 5589 5588 5588 5587 5587 5586 5586 5586 5586 5587 5587 5588 5589 5590 5591 5593 5595 5596 5597 5598 5598 5599 5599 5598 5597 5595 5592 5589 5585 5581 5576 5571 5566 5560 5553 5546
5578 5580 5582 5584 5585 5586 5586 5586 5587 5587 5587 5587 5587 5586 5586 5585 5585 5586 5586 5587 5588 5589 5591 5592 5593 5594 5595 5595 5595 5595 5594 5593 5591 5588 5585 5581 5577 5572 5567 5562 5556 5549 5543 5535